Regional Weather Roundup
Issued by NWS

Home | Current Version | Previous Version | Text Only | Print | Product List | Glossary On
Versions: 1 2 3 4 5 6 7 8 9 10 11 12 13 14 15 16 17 18 19 20 21 22 23 24 25 26 27 28
000
ASUS42 KTBW 161516
RWRFL
FLORIDA REGIONAL WEATHER ROUNDUP
NATIONAL WEATHER SERVICE TAMPA BAY RUSKIN FL
1000 AM EST MON JAN 16 2017

NOTE: "FAIR" INDICATES FEW OR NO CLOUDS BELOW 12,000 FEET WITH NO
SIGNIFICANT WEATHER AND/OR OBSTRUCTIONS TO VISIBILITY.

FLZ001>010-012>015-112-114-115-161600-
PANHANDLE FLORIDA

CITY           SKY/WX    TMP DP  RH WIND       PRES   REMARKS
PENSACOLA      SUNNY     68  61  78 E12       30.22R
PENSACOLA NAS  SUNNY     70  64  81 SE14      30.21R
MILTON NAS       N/A    N/A N/A N/A MISG      30.23R
CRESTVIEW      SUNNY     66  56  70 SE6       30.25R
DUKE FIELD     FAIR      69  55  60 SE10      30.23R
VALPARAISO     MOSUNNY   67  56  68 SE7       30.24R
MARY ESTHER    SUNNY     68  57  68 SE10      30.22R
TRI COUNTY     PTSUNNY   64  61  90 SE3       30.28R
PANAMA CITY    FAIR      66  60  81 E6        30.26R
TYNDALL AFB    PTSUNNY   66  62  86 E6        30.27R
APALACHICOLA   CLOUDY    66  64  93 E8        30.27R

STATION/POSITION SKY/WX   TEMP    WIND        PRES    WAVE   SWELL
                          AIR SEA DIR/SP/G            HT/PER HT/PER
                          (F)     (DEG/KT/KT) (MB)    (FT/S) (FT/S)
30.1N   87.6W              70 66  140/ 10/ 12 1022.6R   4/ 6   3/ 6
28.8N   86.0W              76 75              1023.2R   4/ 5
PANAMA CITY BEAC           66 63  100/  8/ 12 1024.7R
TOWER C                    67     130/ 15/ 16 1025.6R
28.5N   84.5W              70 72  120/ 12/ 16 1024.9R   3/ 6   2/ 7

$$
FLZ011-016>038-118-127-128-134-139-239-161600-
NORTH FLORIDA

CITY           SKY/WX    TMP DP  RH WIND       PRES   REMARKS
MARIANNA       MOSUNNY   66  60  81 SE5       30.27R
TALLAHASSEE    PTSUNNY   66  60  81 S7        30.30R
PERRY          MOSUNNY   69  59  69 SE8       30.31R
CROSS CITY     SUNNY     70  59  68 SE8       30.31R
LAKE CITY      FAIR      66  63  88 SE7       30.32R
GAINESVILLE    PTSUNNY   67  60  78 CALM      30.32R
MAYPORT NAS    PTSUNNY   69  63  81 E5        30.32R
JACKSONVILLE   MOSUNNY   69  64  84 CALM      30.32R
FERNANDINA BEA CLOUDY    68  64  88 E7        30.31R
ST AUGUSTINE   MOSUNNY   71  63  75 NE5       30.34R

STATION/POSITION SKY/WX   TEMP    WIND        PRES    WAVE   SWELL
                          AIR SEA DIR/SP/G            HT/PER HT/PER
                          (F)     (DEG/KT/KT) (MB)    (FT/S) (FT/S)
SHELL POINT      NOT AVBL
KEATON BEACH               68     110/ 10/ 11 1025.7R
CEDAR KEY                  63      80/  7/  8 1025.8R
FERNANDINA                 66 62  130/  4/  5 1027.5R
30.7N   81.3W                 61                N/A     2/10   2/11
MAYPORT          NOT AVBL
31.4N   80.9W              62 60   60/  6/  6 1025.9    3/10   3/10
ST AUGUSTINE               66 64   10/  5/  5 1027.7R

$$
FLZ040-043>046-052-053-057-058-063-144-161600-
INTERIOR CENTRAL FLORIDA

CITY           SKY/WX    TMP DP  RH WIND       PRES   REMARKS
OCALA          PTSUNNY   64  59  82 CALM      30.31R
THE VILLAGES     N/A     66  66 100 CALM      30.22R
LEESBURG       PTSUNNY   71  58  63 SE5       30.32R
SANFORD        SUNNY     73  60  63 SE6       30.31R
ORLANDO EXEC   SUNNY     73  61  65 E7        30.30R
ORLANDO INTL   MOSUNNY   73  60  63 E8        30.30R
KISSIMMEE      SUNNY     71  61  70 E6        30.32R
WINTER HAVEN   MOSUNNY   71  59  65 E7        30.31R
LAKELAND       PTSUNNY   70  63  78 E7        30.30R
BARTOW         MOSUNNY   70  59  68 E9        30.30R
OKEECHOBEE     PTSUNNY   72  61  68 E7        30.28R

$$
FLZ041-047-054-059-064-141-147-161600-
EAST CENTRAL FLORIDA

CITY           SKY/WX    TMP DP  RH WIND       PRES   REMARKS
ORMOND BEACH   MOSUNNY   72  64  78 CALM      30.32R
DAYTONA BEACH  MOSUNNY   71  63  75 CALM      30.32R
NEW SMYRNA BEA MOSUNNY   73  63  68 SE3       30.31R
JFK SPACE CTR  SUNNY     73  65  77 SE6       30.29R
TITUSVILLE     MOSUNNY   72  63  73 E6        30.30R
CAPE CANAVERAL SUNNY     74  59  60 SE10      30.29R
PATRICK AFB    CLOUDY    74  64  70 SE8       30.29R
MELBOURNE      MOSUNNY   74  62  66 E12       30.29R
VERO BEACH     MOSUNNY   75  60  59 E10       30.29R
FT PIERCE      PTSUNNY   75  61  61 E12       30.28R
STUART         MOSUNNY   77  59  53 E13G23    30.29R

STATION/POSITION SKY/WX   TEMP    WIND        PRES    WAVE   SWELL
                          AIR SEA DIR/SP/G            HT/PER HT/PER
                          (F)     (DEG/KT/KT) (MB)    (FT/S) (FT/S)
TRIDENT PIER               72 67   90/  5/  8 1025.7R
28.4N   80.5W                 68                N/A     3/ 4   2/11
27.5N   80.2W                 74                N/A     4/ 5   2/11

$$
FLZ050-056-061-142-242-148-248-149-249-151-251-155-255-
160-260-161600-
WEST CENTRAL FLORIDA

CITY           SKY/WX    TMP DP  RH WIND       PRES   REMARKS
CRYSTAL RIVER  CLOUDY    66  59  77 E3        30.31R
BROOKSVILLE    CLOUDY    66  57  72 E5        30.32R
ST PETE CLEARW CLOUDY    69  61  75 NE6       30.29R
TAMPA INTL     CLOUDY    72  59  63 E8        30.30R
TAMPA EXEC     PTSUNNY   73  61  64 E5        30.30R
PLANT CITY     CLOUDY    73  63  68 E6        30.32R
MACDILL AFB    CLOUDY    71  64  79 E10       30.29R
PETER O KNIGHT CLOUDY    73  63  68 E8        30.30R
ST PETERSBURG  CLOUDY    67  62  84 NE3       30.27R
SARASOTA       CLOUDY    70  59  68 E12       30.26R
VENICE         FAIR      72  63  73 E12       30.27R

STATION/POSITION SKY/WX   TEMP    WIND        PRES    WAVE   SWELL
                          AIR SEA DIR/SP/G            HT/PER HT/PER
                          (F)     (DEG/KT/KT) (MB)    (FT/S) (FT/S)
27.3N   84.2W                 77                N/A     5/ 5
CLEARWATER BEACH           66 64   90/  7/  9 1024.2
MIDDLE TAMPA BAY           66     120/ 10/ 11 1025.4R
VENICE                     65 65   90/  9/ 12 1023.8R

$$
FLZ066-069-070-075>078-162-262-165-265-161600-
SOUTHWEST FLORIDA AND KEYS

CITY           SKY/WX    TMP DP  RH WIND       PRES   REMARKS
PUNTA GORDA    CLOUDY    69  61  75 E10       30.28R
FT MYERS       PTSUNNY   72  63  73 E12       30.25R
SOUTHWEST INTL CLOUDY    71  62  73 E9        30.26R
NAPLES         PTSUNNY   75  65  70 E7        30.24R
MARATHON       PTSUNNY   79  65  62 E10G21    30.20R
KEY WEST NAS   MOSUNNY   79  64  60 SE16      30.20R
KEY WEST INTL  NOT AVBL

STATION/POSITION SKY/WX   TEMP    WIND        PRES    WAVE   SWELL
                          AIR SEA DIR/SP/G            HT/PER HT/PER
                          (F)     (DEG/KT/KT) (MB)    (FT/S) (FT/S)
NAPLES                        67              1023.9R
26.0N   85.6W              76 76  120/ 17/ 21 1022.2R   5/ 6
DRY TORTUGAS               74      90/ 13/ 15 1022.7R
SAND KEY                   76     130/ 20/ 23 1022.8R
LONG KEY                   74 70   90/ 15/ 18 1022.6R

$$
FLZ067-068-071>074-168-172>174-161600-
SOUTHEAST FLORIDA

CITY           SKY/WX    TMP DP  RH WIND       PRES   REMARKS
W PALM BEACH   PTSUNNY   76  61  59 E18       30.26R
BOCA RATON     PTSUNNY   75  64  69 E14G25    30.25R
FT LAUDER-EXEC MOSUNNY   77  63  61 E17       30.24R
FT LAUDERDALE  PTSUNNY   77  64  64 E21       30.23R
POMPANO BEACH  PTSUNNY   75  64  68 E14G25    30.25R
PEMBROKE PINES PTSUNNY   77  63  61 SE17      30.25R
OPA LOCKA      MOSUNNY   78  63  59 SE16      30.25R
MIAMI          PTSUNNY   79  62  56 E17       30.24R
WEST KENDALL   MOSUNNY   77  63  61 E15       30.23R
HOMESTEAD      MOSUNNY   76  66  70 E14       30.22R

STATION/POSITION SKY/WX   TEMP    WIND        PRES    WAVE   SWELL
                          AIR SEA DIR/SP/G            HT/PER HT/PER
                          (F)     (DEG/KT/KT) (MB)    (FT/S) (FT/S)
PORT EVERGLADES            76     100/  5/ 10 1024.0R
VIRGINIA KEY               74 77  100/ 14/ 19 1024.4R
LAKE WORTH                 74 76  100/ 17/ 20 1024.3R
FOWEY ROCKS                75 76   90/ 22/ 25 1023.5R

$$





USA.gov is the U.S. government's official web portal to all federal, state and local government web resources and services.